Flag Weather past 2 weeks in Palermo, Italy

Now
61 °F

Passing clouds.


Feels Like: 61 °F
Forecast: 56 / 71 °F
Wind: 1 mph from Southwest

Location: Palermo / Punta Raisi

Current Time: Nov 24, 2014 at 6:34:12 AM

Latest Report: Nov 24, 2014 at 5:50 AM


Visibility: N/A

Pressure: 30.24 "Hg

Humidity: 88%

Dew point: 57 °F

Location of PalermoLocation

Historic Weather in Palermo — Graph

°F

Palermo temperature yesterday

Maximum temperature yesterday: 70 °F (at 11:20 AM)
Minimum temperature yesterday: 57 °F (at 2:20 AM)
Average temperature yesterday: 64 °F

Past Weeks' High & Low Weather Summary

 TemperatureHumidityPressure
High73 °F (Nov 10, 1:20 PM)94% (Nov 9, 5:50 AM)30.30 "Hg (Nov 9, 5:50 AM)
Low54 °F (Nov 21, 1:50 AM)49% (Nov 10, 5:20 AM)29.68 "Hg (Nov 11, 10:50 PM)
Average65 °F74%30.01 "Hg
* Reported Nov 9 5:20 AM — Nov 24 5:20 AM, Palermo, Weather by CustomWeather, © 2014

Note: Actual official high and low records may vary slightly from our data, if they occured in-between our weather recording intervals... More about our weather records

Advertising

Palermo weather history for previous 24 hours

 ConditionsComfort  
Time TempWeatherWind HumidityBarometerVisibility
5:20 AM
Nov 24
61 °FPassing clouds.1 mph88%30.21 "HgN/A
4:50 AM61 °FPassing clouds.1 mph88%30.24 "HgN/A
4:20 AM59 °FPassing clouds.1 mph94%30.24 "HgN/A
3:50 AM63 °FPassing clouds.2 mph88%30.24 "HgN/A
3:20 AM59 °FPassing clouds.2 mph94%30.24 "HgN/A
2:50 AM61 °FPassing clouds.3 mph88%30.24 "HgN/A
2:20 AM61 °FPassing clouds.5 mph88%30.27 "HgN/A
1:50 AM61 °FPassing clouds.5 mph88%30.27 "HgN/A
1:20 AM61 °FPassing clouds.6 mph88%30.27 "HgN/A
12:50 AM61 °FPassing clouds.7 mph88%30.27 "HgN/A
12:20 AM61 °FPassing clouds.8 mph88%30.27 "HgN/A
11:50 PM
Nov 23
61 °FPassing clouds.7 mph88%30.27 "HgN/A
11:20 PM63 °FPassing clouds.5 mph83%30.27 "HgN/A
10:50 PM64 °FPassing clouds.12 mph88%30.27 "HgN/A
10:20 PM63 °FPassing clouds.7 mph83%30.27 "HgN/A
9:50 PM63 °FPassing clouds.8 mph83%30.27 "HgN/A
9:20 PM64 °FPassing clouds.6 mph83%30.27 "HgN/A
8:50 PM64 °FPassing clouds.5 mph88%30.27 "HgN/A
8:20 PM64 °FClear.9 mph88%30.24 "Hg10 mi
7:50 PM66 °FClear.6 mph83%30.27 "Hg10 mi
7:20 PM63 °FClear.7 mph83%30.24 "Hg10 mi
6:50 PM63 °FClear.7 mph83%30.24 "Hg10 mi
6:20 PM63 °FClear.6 mph88%30.24 "Hg10 mi
5:50 PM66 °FClear.9 mph83%30.24 "Hg10 mi
5:20 PM66 °FClear.1 mph73%30.24 "Hg10 mi
4:50 PM68 °FClear.3 mph73%30.24 "Hg10 mi
4:20 PM68 °FPassing clouds.3 mph69%30.24 "HgN/A
3:50 PM68 °FSunny.8 mph69%30.24 "Hg10 mi
3:20 PM68 °FSunny.7 mph73%30.24 "Hg10 mi
2:50 PM68 °FSunny.5 mph73%30.24 "Hg10 mi
2:20 PM68 °FSunny.5 mph73%30.24 "Hg10 mi
1:50 PM68 °FSunny.6 mph73%30.24 "Hg10 mi
1:20 PM68 °FSunny.3 mph78%30.27 "Hg10 mi
12:50 PM68 °FSunny.3 mph78%30.27 "Hg10 mi
12:20 PM68 °FSunny.6 mph78%30.27 "Hg10 mi
11:50 AM68 °FSunny.10 mph78%30.27 "Hg10 mi
11:20 AM70 °FSunny.1 mph64%30.27 "Hg10 mi
10:50 AM68 °FSunny.7 mph69%30.30 "Hg10 mi
10:20 AM66 °FSunny.9 mph73%30.30 "Hg10 mi
9:50 AM64 °FSunny.9 mph78%30.30 "Hg10 mi
9:20 AM64 °FSunny.10 mph78%30.30 "Hg10 mi
8:50 AM64 °FSunny.7 mph78%30.30 "Hg10 mi
8:20 AM63 °FPassing clouds.3 mph83%30.27 "HgN/A
7:50 AM63 °FSunny.7 mph83%30.27 "Hg10 mi
7:20 AM61 °FSunny.7 mph88%30.27 "Hg10 mi
6:50 AM64 °FPassing clouds.3 mph83%30.24 "HgN/A
6:20 AM61 °FPassing clouds.7 mph83%30.24 "HgN/A
Weather by CustomWeather, © 2014

See weather overviewHow to use our weather pages